This is the latest recevied weather packets stored in our database for station/object KE0LFX. If no packets are shown the sender has not sent any weather packets the latest 10 day(s).
| Time | Temp. | Humidity | Pressure | Rain* | Wind** | Luminosity | Snow |
|---|---|---|---|---|---|---|---|
| 1777242219 | 22.78° C | 53% | 1014.9 hPa | 0 mm | - | 150 W/m² | - |
| 1777241917 | 22.78° C | 53% | 1015.2 hPa | 0 mm | - | 154 W/m² | - |
| 1777241614 | 22.78° C | 52% | 1015.4 hPa | 0 mm | - | 159 W/m² | - |
| 1777241311 | 22.78° C | 52% | 1015.2 hPa | 0 mm | - | 173 W/m² | - |
| 1777241008 | 22.78° C | 52% | 1015.2 hPa | 0 mm | - | 191 W/m² | - |
| 1777240706 | 22.78° C | 51% | 1015.2 hPa | 0 mm | - | 197 W/m² | - |
| 1777240404 | 23.33° C | 51% | 1015.3 hPa | 0 mm | - | 218 W/m² | - |
| 1777240101 | 22.78° C | 51% | 1015.3 hPa | 0 mm | - | 220 W/m² | - |
| 1777239799 | 23.33° C | 49% | 1015.7 hPa | 0 mm | - | 224 W/m² | - |
| 1777239495 | 23.33° C | 50% | 1015.7 hPa | 0 mm | - | 246 W/m² | - |
| 1777239192 | 23.33° C | 50% | 1015.6 hPa | 0 mm | - | 267 W/m² | - |
| 1777238889 | 23.33° C | 49% | 1015.7 hPa | 0 mm | - | 286 W/m² | - |
| 1777238587 | 23.33° C | 50% | 1015.6 hPa | 0 mm | - | 307 W/m² | - |
| 1777238283 | 23.33° C | 50% | 1015.8 hPa | 0 mm | - | 368 W/m² | - |
| 1777237980 | 23.33° C | 52% | 1015.8 hPa | 0 mm | - | 437 W/m² | - |
| 1777237676 | 23.33° C | 51% | 1015.7 hPa | 0 mm | - | 462 W/m² | - |
| 1777237374 | 22.78° C | 52% | 1015.7 hPa | 0 mm | - | 507 W/m² | - |
| 1777237071 | 22.78° C | 53% | 1016 hPa | 0 mm | - | 423 W/m² | - |
| 1777236769 | 22.78° C | 53% | 1016.3 hPa | 0 mm | - | 207 W/m² | - |
| 1777236467 | 23.33° C | 52% | 1016.1 hPa | 0 mm | - | 302 W/m² | - |
| 1777236164 | 23.33° C | 53% | 1016.3 hPa | 0 mm | - | 453 W/m² | - |
| 1777235860 | 22.78° C | 53% | 1016.4 hPa | 0 mm | - | 515 W/m² | - |
| 1777235557 | 22.78° C | 53% | 1016.3 hPa | 0 mm | - | 539 W/m² | - |
| 1777235253 | 22.78° C | 54% | 1016.4 hPa | 0 mm | - | 605 W/m² | - |
| 1777234950 | 22.78° C | 54% | 1016.3 hPa | 0 mm | - | 591 W/m² | - |
* Rain latest hour (hover to see other rain measurements)
** Current wind speed in m/s (hover to see current wind gust speed)